AIC816 VABB-VIDP

Flight info

Callsign AIC816
Flight time 1h 35m
Altitude 39000
Route ANOLI2A ISRIS Q1 UKASO UKASO6G
Aircraft B789/H-SDE1E2E3FGHIJ2J3J4J5M1RWXY/LB1D1

Departure

Time 2026-05-04 03:41
Airport Chhatrapati Shivaji Maharaj International Airport (VABB)

Arrival

Time 2026-05-04 05:16
Airport Indira Gandhi International Airport (VIDP)
Time Latitude Longitude Altitude Speed Heading
2026-05-04 03:06 19.09519 72.87123 55 ft 0 kts 140°
2026-05-04 03:25 19.09528 72.87115 47 ft 3 kts 140°
2026-05-04 03:25 19.09542 72.87102 47 ft 3 kts 139°
2026-05-04 03:25 19.09557 72.87088 47 ft 3 kts 141°
2026-05-04 03:26 19.09574 72.87078 47 ft 3 kts 163°
2026-05-04 03:26 19.09593 72.87075 47 ft 3 kts 185°
2026-05-04 03:26 19.09613 72.87080 47 ft 3 kts 206°
2026-05-04 03:26 19.09620 72.87084 47 ft 0 kts 214°
2026-05-04 03:30 19.09619 72.87084 47 ft 1 kts 214°
2026-05-04 03:30 19.09604 72.87072 47 ft 5 kts 214°
2026-05-04 03:30 19.09569 72.87045 47 ft 8 kts 219°
2026-05-04 03:30 19.09518 72.86997 49 ft 10 kts 226°
2026-05-04 03:31 19.09475 72.86946 47 ft 7 kts 229°
2026-05-04 03:31 19.09443 72.86907 52 ft 7 kts 229°
2026-05-04 03:31 19.09419 72.86887 48 ft 3 kts 210°
2026-05-04 03:31 19.09408 72.86882 52 ft 1 kts 199°
2026-05-04 03:32 19.09392 72.86878 49 ft 2 kts 188°
2026-05-04 03:32 19.09384 72.86881 51 ft 2 kts 158°
2026-05-04 03:32 19.09355 72.86898 51 ft 7 kts 144°
2026-05-04 03:32 19.09305 72.86945 47 ft 13 kts 137°
2026-05-04 03:33 19.09241 72.87033 48 ft 16 kts 106°
2026-05-04 03:33 19.09235 72.87166 55 ft 19 kts 89°
2026-05-04 03:33 19.09204 72.87249 49 ft 10 kts 147°
2026-05-04 03:33 19.09137 72.87264 53 ft 12 kts 174°
2026-05-04 03:34 19.09066 72.87293 49 ft 8 kts 122°
2026-05-04 03:34 19.09053 72.87347 49 ft 8 kts 90°
2026-05-04 03:34 19.09054 72.87430 49 ft 15 kts 89°
2026-05-04 03:34 19.09054 72.87559 49 ft 16 kts 90°
2026-05-04 03:35 19.09053 72.87694 49 ft 22 kts 90°
2026-05-04 03:35 19.09056 72.87809 48 ft 25 kts 87°
2026-05-04 03:35 19.09064 72.87997 54 ft 0 kts 87°
2026-05-04 03:35 19.09065 72.88017 54 ft 5 kts 89°
2026-05-04 03:36 19.09063 72.88043 54 ft 1 kts 111°
2026-05-04 03:36 19.09060 72.88046 54 ft 1 kts 135°
2026-05-04 03:36 19.09057 72.88047 54 ft 1 kts 151°
2026-05-04 03:36 19.09052 72.88047 46 ft 2 kts 170°
2026-05-04 03:37 19.09015 72.88051 48 ft 8 kts 176°
2026-05-04 03:37 19.09009 72.88052 53 ft 0 kts 177°
2026-05-04 03:38 19.09008 72.88052 53 ft 1 kts 177°
2026-05-04 03:38 19.08971 72.88054 48 ft 9 kts 177°
2026-05-04 03:38 19.08902 72.88058 48 ft 4 kts 180°
2026-05-04 03:39 19.08890 72.88052 48 ft 1 kts 214°
2026-05-04 03:39 19.08889 72.88048 48 ft 1 kts 237°
2026-05-04 03:39 19.08884 72.88030 45 ft 6 kts 259°
2026-05-04 03:39 19.08885 72.87944 48 ft 22 kts 269°
2026-05-04 03:40 19.08883 72.87621 47 ft 71 kts 269°
2026-05-04 03:40 19.08873 72.86899 52 ft 124 kts 269°
2026-05-04 03:40 19.08851 72.85811 54 ft 168 kts 268°
2026-05-04 03:40 19.08918 72.84546 569 ft 161 kts 278°
2026-05-04 03:41 19.09097 72.83488 1346 ft 148 kts 283°
2026-05-04 03:41 19.09276 72.82319 1538 ft 173 kts 266°
2026-05-04 03:41 19.08832 72.81062 1825 ft 193 kts 244°
2026-05-04 03:41 19.08639 72.79624 2499 ft 200 kts 270°
2026-05-04 03:42 19.08719 72.78148 3208 ft 207 kts 270°
2026-05-04 03:42 19.09002 72.76606 3707 ft 223 kts 296°
2026-05-04 03:42 19.10039 72.75413 4578 ft 223 kts 323°
2026-05-04 03:42 19.11514 72.74940 5409 ft 224 kts 351°
2026-05-04 03:43 19.13138 72.74834 5800 ft 246 kts 354°
2026-05-04 03:43 19.14938 72.74768 6070 ft 269 kts 355°
2026-05-04 03:43 19.16812 72.74678 6808 ft 268 kts 354°
2026-05-04 03:43 19.18703 72.74568 7285 ft 276 kts 354°
2026-05-04 03:44 19.20627 72.74456 7666 ft 277 kts 354°
2026-05-04 03:44 19.22557 72.74350 8042 ft 279 kts 355°
2026-05-04 03:44 19.24499 72.74244 8415 ft 281 kts 355°
2026-05-04 03:44 19.26460 72.74134 8792 ft 283 kts 355°
2026-05-04 03:45 19.28421 72.74025 9168 ft 283 kts 355°
2026-05-04 03:45 19.30392 72.73970 9535 ft 285 kts
2026-05-04 03:45 19.32356 72.74288 9906 ft 286 kts
2026-05-04 03:45 19.34332 72.74586 10247 ft 288 kts
2026-05-04 03:46 19.36325 72.74882 10603 ft 291 kts
2026-05-04 03:46 19.38339 72.75191 10947 ft 293 kts
2026-05-04 03:46 19.40362 72.75504 11301 ft 295 kts
2026-05-04 03:46 19.42404 72.75819 11663 ft 298 kts
2026-05-04 03:47 19.44469 72.76135 12021 ft 301 kts
2026-05-04 03:47 19.46549 72.76455 12399 ft 304 kts
2026-05-04 03:47 19.48622 72.76772 12761 ft 307 kts
2026-05-04 03:47 19.50769 72.77103 13135 ft 310 kts
2026-05-04 03:48 19.52912 72.77433 13515 ft 313 kts
2026-05-04 03:48 19.55051 72.77762 13875 ft 315 kts
2026-05-04 03:48 19.57224 72.78096 14212 ft 316 kts
2026-05-04 03:48 19.59402 72.78432 14556 ft 317 kts
2026-05-04 03:49 19.61590 72.78768 14905 ft 318 kts
2026-05-04 03:49 19.63776 72.79105 15258 ft 320 kts
2026-05-04 03:49 19.65989 72.79446 15624 ft 321 kts
2026-05-04 03:49 19.68200 72.79787 16049 ft 322 kts
2026-05-04 03:50 19.70447 72.80132 16439 ft 332 kts
2026-05-04 03:50 19.72771 72.80489 16841 ft 343 kts
2026-05-04 03:50 19.75166 72.80859 17263 ft 352 kts
2026-05-04 03:50 19.77614 72.81238 17723 ft 360 kts
2026-05-04 03:51 19.80125 72.81625 18177 ft 368 kts
2026-05-04 03:51 19.82678 72.82019 18585 ft 374 kts
2026-05-04 03:51 19.85271 72.82419 19000 ft 380 kts
2026-05-04 03:51 19.87905 72.82827 19426 ft 385 kts
2026-05-04 03:52 19.90571 72.83239 19854 ft 389 kts
2026-05-04 03:52 19.93267 72.83655 20286 ft 393 kts
2026-05-04 03:52 19.95987 72.84076 20731 ft 397 kts
2026-05-04 03:52 19.98730 72.84500 21173 ft 400 kts
2026-05-04 03:53 20.01491 72.84928 21623 ft 403 kts
2026-05-04 03:53 20.04272 72.85358 22075 ft 405 kts
2026-05-04 03:53 20.07066 72.85791 22544 ft 406 kts
2026-05-04 03:53 20.09869 72.86159 23009 ft 405 kts
2026-05-04 03:54 20.12637 72.86504 23462 ft 407 kts
2026-05-04 03:54 20.15450 72.86903 23847 ft 408 kts
2026-05-04 03:54 20.18275 72.87273 24229 ft 409 kts
2026-05-04 03:54 20.21096 72.87616 24620 ft 409 kts
2026-05-04 03:55 20.23937 72.87970 24843 ft 415 kts
2026-05-04 03:55 20.26837 72.88347 24955 ft 420 kts
2026-05-04 03:55 20.29715 72.88724 25342 ft 416 kts
2026-05-04 03:55 20.32592 72.89090 25734 ft 417 kts
2026-05-04 03:56 20.35475 72.89453 26125 ft 418 kts
2026-05-04 03:56 20.38367 72.89824 26512 ft 419 kts
2026-05-04 03:56 20.41260 72.90197 26913 ft 420 kts
2026-05-04 03:56 20.44162 72.90569 27322 ft 420 kts
2026-05-04 03:57 20.47112 72.90946 27738 ft 421 kts
2026-05-04 03:57 20.50021 72.91318 28150 ft 422 kts
2026-05-04 03:57 20.52904 72.91689 28559 ft 423 kts
2026-05-04 03:57 20.55827 72.92064 28988 ft 424 kts
2026-05-04 03:58 20.61695 72.92817 29884 ft 425 kts
2026-05-04 03:58 20.64635 72.93194 30244 ft 426 kts
2026-05-04 03:58 20.67581 72.93573 30616 ft 427 kts
2026-05-04 03:59 20.70533 72.93953 31001 ft 427 kts
2026-05-04 03:59 20.73470 72.94331 31378 ft 428 kts
2026-05-04 03:59 20.76441 72.94664 31781 ft 424 kts 356°
2026-05-04 03:59 20.79378 72.94751 32191 ft 423 kts 357°
2026-05-04 04:00 20.82321 72.94864 32596 ft 423 kts 357°
2026-05-04 04:00 20.85258 72.94981 33006 ft 423 kts 357°
2026-05-04 04:00 20.88202 72.95088 33410 ft 422 kts 357°
2026-05-04 04:00 20.91137 72.95191 33833 ft 421 kts 357°
2026-05-04 04:01 20.94063 72.95298 34206 ft 420 kts 357°
2026-05-04 04:01 20.96983 72.95408 34575 ft 419 kts 356°
2026-05-04 04:01 20.99889 72.95515 34936 ft 418 kts 356°
2026-05-04 04:01 21.02787 72.95620 35313 ft 416 kts 356°
2026-05-04 04:02 21.05676 72.95726 35685 ft 414 kts 356°
2026-05-04 04:02 21.08546 72.95832 36064 ft 412 kts 356°
2026-05-04 04:02 21.11394 72.95937 36443 ft 409 kts 356°
2026-05-04 04:02 21.14233 72.96042 36830 ft 406 kts 356°
2026-05-04 04:03 21.17045 72.96167 37211 ft 404 kts
2026-05-04 04:03 21.19804 72.96753 37646 ft 407 kts 12°
2026-05-04 04:03 21.22470 72.97772 38062 ft 404 kts 13°
2026-05-04 04:03 21.25104 72.98777 38448 ft 399 kts 13°
2026-05-04 04:04 21.27701 72.99765 38769 ft 394 kts 13°
2026-05-04 04:04 21.30297 73.00765 38794 ft 399 kts 13°
2026-05-04 04:04 21.35575 73.02805 38814 ft 408 kts 13°
2026-05-04 04:05 21.40984 73.04890 38828 ft 418 kts 13°
2026-05-04 04:05 21.46529 73.07033 38836 ft 429 kts 13°
2026-05-04 04:06 21.52220 73.09233 38834 ft 440 kts 14°
2026-05-04 04:06 21.58058 73.11493 38830 ft 451 kts 14°
2026-05-04 04:07 21.64035 73.13807 38831 ft 462 kts 14°
2026-05-04 04:07 21.70153 73.16179 38835 ft 473 kts 14°
2026-05-04 04:08 21.76404 73.18604 38833 ft 483 kts 14°
2026-05-04 04:08 21.82784 73.21082 38829 ft 492 kts 14°
2026-05-04 04:09 21.89285 73.23609 38829 ft 501 kts 14°
2026-05-04 04:09 21.95893 73.26180 38826 ft 508 kts 14°
2026-05-04 04:10 22.02561 73.28779 38815 ft 510 kts 14°
2026-05-04 04:10 22.09238 73.31382 38819 ft 509 kts 14°
2026-05-04 04:11 22.15903 73.33983 38814 ft 510 kts 14°
2026-05-04 04:11 22.22572 73.36588 38813 ft 510 kts 14°
2026-05-04 04:12 22.29252 73.39201 38812 ft 511 kts 14°
2026-05-04 04:12 22.35884 73.41797 38816 ft 510 kts 14°
2026-05-04 04:13 22.42545 73.44407 38817 ft 509 kts 14°
2026-05-04 04:13 22.49190 73.47014 38820 ft 508 kts 14°
2026-05-04 04:14 22.55843 73.49625 38830 ft 509 kts 14°
2026-05-04 04:14 22.62497 73.52241 38828 ft 508 kts 14°
2026-05-04 04:15 22.69148 73.54858 38832 ft 509 kts 14°
2026-05-04 04:15 22.75803 73.57479 38831 ft 509 kts 14°
2026-05-04 04:16 22.82468 73.60107 38835 ft 510 kts 14°
2026-05-04 04:16 22.89141 73.62740 38837 ft 511 kts 14°
2026-05-04 04:17 22.95834 73.65384 38832 ft 514 kts 14°
2026-05-04 04:17 23.02608 73.68062 38841 ft 522 kts 14°
2026-05-04 04:18 23.09469 73.70779 38845 ft 528 kts 14°
2026-05-04 04:18 23.16417 73.73532 38832 ft 535 kts 14°
2026-05-04 04:19 23.23423 73.76314 38833 ft 537 kts 14°
2026-05-04 04:19 23.30422 73.79094 38838 ft 535 kts 14°
2026-05-04 04:20 23.37420 73.81877 38843 ft 535 kts 14°
2026-05-04 04:20 23.44403 73.84657 38853 ft 534 kts 14°
2026-05-04 04:21 23.51388 73.87440 38858 ft 535 kts 14°
2026-05-04 04:21 23.57206 73.89762 38848 ft 537 kts 14°
2026-05-04 04:22 23.64220 73.92564 38851 ft 537 kts 14°
2026-05-04 04:22 23.71236 73.95369 38854 ft 537 kts 14°
2026-05-04 04:23 23.78239 73.98173 38861 ft 536 kts 15°
2026-05-04 04:23 23.85254 74.00983 38857 ft 537 kts 15°
2026-05-04 04:24 23.92275 74.03802 38863 ft 538 kts 15°
2026-05-04 04:24 23.99300 74.06622 38864 ft 539 kts 15°
2026-05-04 04:25 24.06350 74.09457 38865 ft 540 kts 15°
2026-05-04 04:25 24.13410 74.12285 38865 ft 541 kts 14°
2026-05-04 04:26 24.20482 74.15130 38862 ft 544 kts 14°
2026-05-04 04:26 24.27607 74.17998 38869 ft 547 kts 14°
2026-05-04 04:27 24.34699 74.20869 38868 ft 547 kts 14°
2026-05-04 04:27 24.41891 74.23774 38867 ft 547 kts 14°
2026-05-04 04:28 24.49032 74.26668 38867 ft 547 kts 14°
2026-05-04 04:28 24.56181 74.29565 38862 ft 548 kts 14°
2026-05-04 04:29 24.63290 74.32453 38861 ft 548 kts 14°
2026-05-04 04:29 24.70442 74.35358 38861 ft 548 kts 14°
2026-05-04 04:30 24.77583 74.38266 38857 ft 547 kts 14°
2026-05-04 04:30 24.84714 74.41170 38860 ft 547 kts 14°
2026-05-04 04:31 24.91858 74.44085 38866 ft 547 kts 14°
2026-05-04 04:31 24.98999 74.47002 38862 ft 547 kts 14°
2026-05-04 04:32 25.06138 74.49921 38864 ft 548 kts 14°
2026-05-04 04:32 25.13281 74.52846 38864 ft 548 kts 14°
2026-05-04 04:33 25.20428 74.55784 38864 ft 548 kts 14°
2026-05-04 04:33 25.27570 74.58729 38869 ft 548 kts 14°
2026-05-04 04:34 25.34719 74.61675 38863 ft 548 kts 14°
2026-05-04 04:34 25.41868 74.64629 38870 ft 549 kts 14°
2026-05-04 04:35 25.49018 74.67586 38871 ft 548 kts 14°
2026-05-04 04:35 25.56159 74.70542 38862 ft 548 kts 15°
2026-05-04 04:36 25.63301 74.73503 38864 ft 548 kts 15°
2026-05-04 04:36 25.70448 74.76469 38866 ft 548 kts 15°
2026-05-04 04:37 25.84767 74.82425 38867 ft 550 kts 15°
2026-05-04 04:38 25.91898 74.85396 38863 ft 551 kts 15°
2026-05-04 04:38 25.99074 74.88390 38868 ft 551 kts 15°
2026-05-04 04:39 26.06257 74.91391 38867 ft 552 kts 15°
2026-05-04 04:39 26.13435 74.94395 38866 ft 551 kts 15°
2026-05-04 04:40 26.20618 74.97401 38865 ft 551 kts 15°
2026-05-04 04:40 26.27810 75.00401 38861 ft 551 kts 15°
2026-05-04 04:41 26.34991 75.03408 38859 ft 551 kts 15°
2026-05-04 04:41 26.42166 75.06412 38862 ft 551 kts 15°
2026-05-04 04:42 26.49349 75.09421 38861 ft 552 kts 15°
2026-05-04 04:42 26.56544 75.12431 38859 ft 552 kts 15°
2026-05-04 04:43 26.63726 75.15444 38855 ft 552 kts 15°
2026-05-04 04:43 26.70931 75.18468 38846 ft 553 kts 15°
2026-05-04 04:44 26.78139 75.21497 38843 ft 554 kts 15°
2026-05-04 04:44 26.85350 75.24532 38842 ft 554 kts 15°
2026-05-04 04:45 26.92561 75.27570 38838 ft 554 kts 15°
2026-05-04 04:47 27.17848 75.38274 38829 ft 557 kts 19°
2026-05-04 04:47 27.21303 75.40300 38848 ft 565 kts 30°
2026-05-04 04:47 27.24453 75.42972 38848 ft 571 kts 40°
2026-05-04 04:48 27.30163 75.49193 38832 ft 571 kts 41°
2026-05-04 04:49 27.41394 75.61601 36724 ft 567 kts 41°
2026-05-04 04:49 27.44205 75.64717 35891 ft 567 kts 41°
2026-05-04 04:49 27.47011 75.67834 35126 ft 566 kts 41°
2026-05-04 04:49 27.49814 75.70935 34378 ft 565 kts 41°
2026-05-04 04:50 27.52608 75.74026 33589 ft 562 kts 41°
2026-05-04 04:50 27.55394 75.77118 32745 ft 560 kts 42°
2026-05-04 04:50 27.58158 75.80190 31929 ft 557 kts 42°
2026-05-04 04:50 27.60938 75.83206 31127 ft 551 kts 37°
2026-05-04 04:51 27.64024 75.85705 30351 ft 543 kts 27°
2026-05-04 04:51 27.67390 75.87552 29518 ft 535 kts 17°
2026-05-04 04:51 27.70908 75.88827 28561 ft 529 kts 13°
2026-05-04 04:51 27.74421 75.90018 27585 ft 527 kts 13°
2026-05-04 04:52 27.77890 75.91172 26660 ft 524 kts 13°
2026-05-04 04:52 27.81426 75.92356 25739 ft 522 kts 13°
2026-05-04 04:52 27.84847 75.93518 24866 ft 519 kts 14°
2026-05-04 04:52 27.88289 75.94685 24023 ft 515 kts 14°
2026-05-04 04:53 27.91710 75.95837 23160 ft 511 kts 14°
2026-05-04 04:53 27.95107 75.96982 22181 ft 507 kts 14°
2026-05-04 04:53 27.98477 75.98122 21244 ft 503 kts 14°
2026-05-04 04:53 28.01803 75.99251 20502 ft 495 kts 14°
2026-05-04 04:54 28.05058 76.00354 19923 ft 483 kts 14°
2026-05-04 04:54 28.08245 76.01433 19407 ft 471 kts 14°
2026-05-04 04:54 28.11344 76.02483 18943 ft 459 kts 14°
2026-05-04 04:54 28.14367 76.03509 18494 ft 448 kts 13°
2026-05-04 04:55 28.17311 76.04524 18061 ft 437 kts 16°
2026-05-04 04:55 28.20038 76.05983 17592 ft 431 kts 28°
2026-05-04 04:55 28.22415 76.08005 17146 ft 425 kts 41°
2026-05-04 04:55 28.24362 76.10497 16713 ft 421 kts 53°
2026-05-04 04:56 28.25834 76.13347 16309 ft 419 kts 62°
2026-05-04 04:56 28.27156 76.16299 15886 ft 419 kts 62°
2026-05-04 04:56 28.28464 76.19246 15478 ft 417 kts 62°
2026-05-04 04:56 28.29756 76.22183 15072 ft 415 kts 62°
2026-05-04 04:57 28.31046 76.25105 14676 ft 413 kts 62°
2026-05-04 04:57 28.32336 76.28016 14288 ft 411 kts 62°
2026-05-04 04:57 28.33612 76.30900 13907 ft 409 kts 62°
2026-05-04 04:57 28.34880 76.33776 13513 ft 402 kts 62°
2026-05-04 04:58 28.36115 76.36578 13093 ft 392 kts 62°
2026-05-04 04:58 28.37321 76.39311 12691 ft 382 kts 62°
2026-05-04 04:58 28.38495 76.41977 12281 ft 373 kts 62°
2026-05-04 04:58 28.39643 76.44585 11912 ft 365 kts 63°
2026-05-04 04:59 28.40763 76.47131 11526 ft 356 kts 63°
2026-05-04 04:59 28.41857 76.49619 11173 ft 348 kts 63°
2026-05-04 04:59 28.42928 76.52056 10828 ft 341 kts 63°
2026-05-04 04:59 28.43971 76.54430 10494 ft 333 kts 63°
2026-05-04 05:00 28.44998 76.56769 10164 ft 326 kts 63°
2026-05-04 05:00 28.45861 76.59109 9828 ft 318 kts 82°
2026-05-04 05:00 28.46428 76.63848 9823 ft 308 kts 56°
2026-05-04 05:01 28.47842 76.65714 9519 ft 315 kts 43°
2026-05-04 05:01 28.49424 76.67409 9123 ft 310 kts 43°
2026-05-04 05:01 28.50885 76.69197 8732 ft 306 kts 52°
2026-05-04 05:01 28.52045 76.71188 8399 ft 296 kts 60°
2026-05-04 05:02 28.53040 76.73174 8091 ft 284 kts 60°
2026-05-04 05:02 28.54059 76.75053 7780 ft 274 kts 58°
2026-05-04 05:02 28.55097 76.76833 7470 ft 266 kts 57°
2026-05-04 05:02 28.56096 76.78569 7154 ft 259 kts 58°
2026-05-04 05:03 28.57058 76.80281 6872 ft 253 kts 59°
2026-05-04 05:03 28.57996 76.81952 6585 ft 252 kts 59°
2026-05-04 05:04 28.61933 76.84939 5637 ft 249 kts 359°
2026-05-04 05:04 28.63640 76.84838 5349 ft 249 kts 356°
2026-05-04 05:04 28.65387 76.84683 5063 ft 249 kts 356°
2026-05-04 05:06 28.72673 76.75716 2909 ft 247 kts 289°
2026-05-04 05:06 28.73094 76.73878 2566 ft 236 kts 268°
2026-05-04 05:06 28.72560 76.72227 2289 ft 213 kts 223°
2026-05-04 05:07 28.71325 76.71538 2293 ft 196 kts 177°
2026-05-04 05:07 28.70066 76.71988 2320 ft 190 kts 148°
2026-05-04 05:07 28.68937 76.72779 2339 ft 191 kts 144°
2026-05-04 05:09 28.61801 76.80844 2350 ft 166 kts 127°
2026-05-04 05:09 28.61107 76.81878 2351 ft 165 kts 127°
2026-05-04 05:10 28.60425 76.82897 2355 ft 156 kts 126°
2026-05-04 05:10 28.60031 76.83996 2354 ft 149 kts 104°
2026-05-04 05:10 28.59739 76.85131 2366 ft 147 kts 107°
2026-05-04 05:10 28.59470 76.86245 2367 ft 148 kts 105°
2026-05-04 05:11 28.59224 76.87369 2369 ft 145 kts 104°
2026-05-04 05:11 28.58984 76.88495 2370 ft 148 kts 105°
2026-05-04 05:11 28.58734 76.89639 2375 ft 148 kts 105°
2026-05-04 05:11 28.58490 76.90768 2377 ft 148 kts 104°
2026-05-04 05:12 28.58240 76.91926 2385 ft 153 kts 105°
2026-05-04 05:12 28.57989 76.93082 2386 ft 147 kts 105°
2026-05-04 05:12 28.57745 76.94214 2392 ft 149 kts 104°
2026-05-04 05:12 28.57495 76.95367 2393 ft 151 kts 104°
2026-05-04 05:13 28.57247 76.96513 2397 ft 148 kts 104°
2026-05-04 05:13 28.56997 76.97673 2401 ft 151 kts 104°
2026-05-04 05:13 28.56745 76.98841 2277 ft 152 kts 105°
2026-05-04 05:13 28.56498 76.99986 2080 ft 148 kts 105°
2026-05-04 05:14 28.56249 77.01132 1889 ft 151 kts 105°
2026-05-04 05:14 28.56035 77.02126 1725 ft 150 kts 104°
2026-05-04 05:14 28.55778 77.03276 1543 ft 151 kts 104°
2026-05-04 05:14 28.55535 77.04459 1323 ft 155 kts 103°
2026-05-04 05:15 28.55260 77.05686 1111 ft 158 kts 102°
2026-05-04 05:15 28.55012 77.06865 886 ft 151 kts 99°
2026-05-04 05:15 28.54754 77.08054 774 ft 157 kts 100°
2026-05-04 05:15 28.54526 77.09124 755 ft 113 kts 108°
2026-05-04 05:16 28.54387 77.09748 752 ft 51 kts 104°
2026-05-04 05:16 28.54338 77.09973 757 ft 18 kts 104°
2026-05-04 05:16 28.54306 77.10121 757 ft 20 kts 104°
2026-05-04 05:16 28.54271 77.10282 756 ft 22 kts 104°
2026-05-04 05:17 28.54237 77.10445 756 ft 19 kts 100°
2026-05-04 05:17 28.54266 77.10555 754 ft 11 kts 31°
2026-05-04 05:17 28.54342 77.10576 752 ft 10 kts 358°
2026-05-04 05:17 28.54394 77.10546 752 ft 6 kts 309°
2026-05-04 05:18 28.54405 77.10513 754 ft 5 kts 285°
2026-05-04 05:18 28.54420 77.10451 754 ft 11 kts 285°
2026-05-04 05:18 28.54445 77.10344 757 ft 17 kts 285°
2026-05-04 05:18 28.54482 77.10186 752 ft 25 kts 284°
2026-05-04 05:19 28.54532 77.09968 755 ft 29 kts 285°
2026-05-04 05:19 28.54589 77.09729 755 ft 32 kts 285°
2026-05-04 05:19 28.54647 77.09475 755 ft 35 kts 285°
2026-05-04 05:19 28.54698 77.09263 751 ft 20 kts 285°
2026-05-04 05:20 28.54738 77.09097 757 ft 23 kts 285°
2026-05-04 05:20 28.54777 77.08920 755 ft 22 kts 284°
2026-05-04 05:20 28.54815 77.08750 754 ft 23 kts 284°
2026-05-04 05:20 28.54854 77.08571 752 ft 24 kts 284°
2026-05-04 05:21 28.54896 77.08387 753 ft 24 kts 284°
2026-05-04 05:21 28.54938 77.08202 754 ft 24 kts 284°
2026-05-04 05:21 28.54983 77.08020 754 ft 24 kts 286°
2026-05-04 05:21 28.55021 77.07849 757 ft 19 kts 282°
2026-05-04 05:22 28.55065 77.07719 753 ft 14 kts 321°
2026-05-04 05:22 28.55118 77.07713 757 ft 5 kts 13°
2026-05-04 05:22 28.55156 77.07726 753 ft 6 kts 16°
2026-05-04 05:22 28.55198 77.07739 753 ft 7 kts 14°
2026-05-04 05:23 28.55239 77.07758 752 ft 5 kts 37°
2026-05-04 05:23 28.55253 77.07779 753 ft 3 kts 60°
2026-05-04 05:23 28.55256 77.07789 753 ft 1 kts 73°
2026-05-04 05:23 28.55256 77.07803 752 ft 4 kts 88°
2026-05-04 05:24 28.55252 77.07838 754 ft 6 kts 96°
2026-05-04 05:24 28.55256 77.07872 755 ft 3 kts 76°
2026-05-04 05:24 28.55262 77.07891 753 ft 3 kts 66°
2026-05-04 05:24 28.55274 77.07916 752 ft 4 kts 62°
2026-05-04 05:25 28.55291 77.07954 754 ft 6 kts 61°
2026-05-04 05:25 28.55302 77.07969 752 ft 1 kts 32°
2026-05-04 05:25 28.55310 77.07968 754 ft 1 kts 347°
2026-05-04 05:25 28.55330 77.07955 751 ft 2 kts 331°
2026-05-04 05:26 28.55342 77.07947 753 ft 4 kts 330°
2026-05-04 05:26 28.55356 77.07938 752 ft 0 kts 329°